Temp_Advection
nan nan nan nan nan nan nan nan nan nan nan nan nan nan nan nan nan nan nan nan nan nan nan nan nan nan nan nan nan nan nan nan nan nan nan nan nan nan nan nan nan nan nan nan nan nan nan nan nan
nan -0 -0 -0 -0 0 -0 -0 -0 -0 -0 -0 -0 0 -0 0 0 0 0 0 0 0 0 0 0 0 -0 -0 0 0 0 0 0 -0 -0 -0 0 0 0 -0 -0 0 -0 -0 -0 -0 -0 -0 nan
nan -0 0 -0 0 -0 -0 -0 -0 -1 -0 -0 0 0 0 -0 0 0 0 0 0 0 0 0 0 0 -0 0 0 0 0 0 0 0 -0 0 0 0 -0 -0 -0 -0 -0 0 -0 -0 -0 -0 nan
nan -0 -0 -0 -0 -0 -0 -0 -0 -1 -1 -0 0 0 -0 -0 -0 0 0 0 0 0 0 0 0 0 0 0 0 0 0 0 0 0 0 -0 0 0 -0 -0 -0 -0 -0 -0 -0 -0 -0 0 nan
nan -0 -0 -0 -0 -0 -0 -0 -0 -0 -0 -0 0 0 -0 -0 -0 0 0 0 0 0 0 -0 0 0 0 0 0 0 0 0 0 -0 0 0 0 0 -0 -0 0 -0 -0 -0 -0 -0 0 0 nan
nan -0 -0 -0 -0 -0 -1 -0 -0 -0 -0 -0 -0 0 -0 -0 0 0 0 0 0 0 0 0 0 0 0 0 0 0 0 0 0 0 0 0 0 0 -0 0 0 -0 -0 -0 -0 -0 -0 -0 nan
nan -0 -0 -0 -0 -0 -0 -0 0 -0 -0 -0 0 0 -0 -0 0 0 0 0 0 0 0 0 0 0 0 0 0 0 0 0 0 0 -0 -0 -0 -0 -0 -0 -0 -0 -0 0 0 0 0 -0 nan
nan -0 0 0 -0 -0 -0 -1 0 1 -0 -0 0 -0 -0 -0 0 0 0 0 0 0 -0 0 0 0 0 0 0 0 0 -0 0 -0 -1 -0 0 -0 -1 -0 -0 -0 0 0 0 -0 0 0 nan
nan -0 -0 -0 -0 -0 -0 -0 -1 -0 -0 -0 -0 -0 -0 -0 0 -0 0 0 -0 -0 0 0 0 0 0 0 0 0 -0 -0 0 -0 -0 0 0 -0 -0 0 0 -0 0 0 0 0 0 0 nan
nan -0 -0 -0 -0 -0 -0 -0 -1 -0 -1 -0 -0 -0 -0 0 0 0 0 0 0 0 0 0 0 0 0 0 0 0 -0 -0 0 0 0 0 0 0 -0 -0 0 0 0 0 0 0 0 0 nan
nan -0 -0 -1 -1 0 0 -0 -0 0 -0 -1 -0 -0 -0 -0 0 0 -0 0 0 0 0 0 0 0 0 0 0 0 -0 -0 0 0 0 0 -0 -0 -0 0 0 0 0 0 0 0 0 0 nan
nan -0 -1 -0 0 0 -0 -1 -0 -1 -1 -0 -0 -0 0 -0 -0 -0 0 1 1 0 0 0 0 0 0 0 0 0 -0 -0 0 0 0 -0 -0 0 -0 -0 0 0 0 0 0 0 0 -0 nan
nan -0 -1 -0 0 -0 1 1 -1 -2 -1 -0 -0 -0 -0 -0 -0 0 0 1 1 0 0 0 0 0 0 1 0 0 0 -0 0 0 0 0 0 0 0 0 0 0 0 0 0 0 -0 -0 nan
nan -0 -0 -0 0 0 0 -0 -0 -1 -1 -0 -0 -0 -0 0 0 1 0 0 0 0 0 0 0 0 0 0 0 0 0 -0 -0 -0 0 0 0 0 0 0 0 0 0 0 0 0 0 0 nan
nan 0 -0 -1 0 -0 -0 0 -1 -3 -0 -1 -0 -0 -0 0 0 0 -0 0 -0 -0 0 0 1 0 0 0 0 0 0 0 -0 0 0 0 0 0 0 0 0 0 1 0 0 0 0 0 nan
nan 0 -0 -0 -0 -0 0 0 -1 -2 0 -0 -0 -0 -0 -0 0 0 -0 -0 -0 -0 0 1 1 0 0 0 0 0 0 0 0 0 0 0 0 0 -0 -0 -0 0 0 0 0 0 0 0 nan
nan 0 0 -1 -0 0 0 0 -1 -1 -0 -0 -0 0 0 0 0 -0 -0 -0 -0 -0 -0 0 1 1 1 0 0 0 0 0 0 0 -0 0 1 0 -0 -0 -0 -0 0 0 -0 -0 -0 -0 nan
nan -0 0 -0 -0 -0 0 -0 -1 -1 -0 -0 0 0 0 0 -0 -0 -0 -0 -0 -0 -0 -0 -0 0 0 0 0 0 0 0 0 0 0 0 0 0 0 -0 -0 -0 -0 -0 0 0 0 0 nan
nan -0 0 0 -0 0 0 -0 -1 -1 0 0 1 0 0 -0 -0 0 0 0 0 -0 -0 -0 -0 -0 -0 0 0 0 0 0 0 0 -0 0 0 0 0 0 -0 -0 -0 0 0 0 0 0 nan
nan 0 0 -0 -0 -0 0 0 -0 -0 0 -0 0 0 0 0 0 0 0 0 -0 -0 -0 -0 -0 -0 -0 -0 0 0 0 0 0 0 -0 -0 0 0 0 0 -0 -0 -0 -0 0 0 0 -0 nan
nan 0 -0 -0 -0 -0 -0 -0 -0 0 0 0 0 0 0 0 0 0 0 -0 -0 -0 -0 -0 -0 -0 -0 -0 -0 -0 0 0 -0 -0 -0 -0 -0 -0 -0 -0 -0 -0 -0 -0 -0 0 -0 -1 nan
nan -0 -0 -0 -0 0 -0 0 -0 0 0 0 1 0 0 0 0 0 0 -0 -0 -0 -0 -0 -0 -0 -1 -0 -0 -0 -0 -0 -0 -0 -0 -0 -0 -0 -0 -0 -0 -0 -0 -0 -0 -0 0 -0 nan
nan -0 0 0 0 -0 -0 0 -0 0 0 0 0 1 0 0 0 -0 -0 -0 -0 -0 -0 -0 -0 -0 -0 -0 -0 -0 -0 -0 -0 -0 -0 -0 -0 -0 0 0 0 -0 -0 -0 -0 -1 0 0 nan
nan -0 -0 -0 -0 -0 -0 0 0 -0 -0 -0 -0 0 0 0 -0 -0 -0 -0 -0 -0 -0 -0 -0 -0 -0 -0 -0 -0 -0 -0 -0 -0 -0 -0 0 0 -0 -0 -0 -0 -0 -0 -0 -0 -0 0 nan
nan -0 -0 0 0 -0 0 0 -1 0 0 -1 -1 -0 0 0 -0 -0 -0 -0 -0 -0 -0 -0 -0 -0 -0 -0 -0 -0 -0 -0 -0 -0 -1 -1 -1 -1 -0 -1 -1 -1 -1 -1 -1 -1 -1 -0 nan
nan -0 -0 -0 0 0 0 -0 0 0 -1 0 -1 -0 0 0 0 0 0 -0 -0 -0 -0 -0 -0 -0 -0 -0 -0 -0 -0 -0 -0 -0 -1 -1 -1 -1 -1 -1 -1 -1 -1 -1 -1 -1 -1 -1 nan
nan 0 -0 -0 -0 0 -0 -0 0 0 -0 1 3 1 0 0 0 0 0 0 0 -0 -0 -0 -0 -0 -0 -0 -0 -0 -0 -1 -0 -0 -0 -0 -0 -1 -1 -1 -1 -1 -1 -1 -1 -1 -1 -1 nan
nan 0 -0 -0 -0 0 0 -0 -0 0 -0 -0 1 -0 -0 0 0 0 0 0 0 0 -0 -0 -0 -0 -0 -0 -0 -0 -0 -0 -1 -1 -1 -0 -1 -1 -1 -1 -1 -1 -1 -1 -1 -1 -1 -1 nan
nan -0 -0 -0 0 0 -0 -0 0 0 0 -0 -1 -0 0 0 -0 0 0 0 0 0 0 -0 -0 -0 -0 -0 -0 -1 -1 -0 -1 -1 -1 -1 -1 -1 -1 -1 -1 -1 -1 -1 -1 -1 -1 -1 nan
nan nan nan nan nan nan nan nan nan nan nan nan nan nan nan nan nan nan nan nan nan nan nan nan nan nan nan nan nan nan nan nan nan nan nan nan nan nan nan nan nan nan nan nan nan nan nan nan nan
Wind_Speed
18 20 12 2 3 4 2 4 3 6 4 3 5 4 1 1 2 3 4 3 4 2 3 7 12 11 11 10 10 8 7 6 3 6 5 4 6 6 7 8 8 5 4 6 5 6 6 4 7
18 17 4 1 4 2 4 4 3 4 9 10 2 3 2 3 2 5 4 5 3 2 2 5 10 13 13 10 8 7 7 6 6 8 5 6 6 6 7 6 5 7 6 4 8 10 12 8 7
17 12 3 4 2 4 4 4 5 9 18 6 3 4 2 2 3 5 6 5 2 1 2 4 10 13 12 9 8 8 8 7 8 8 6 9 7 8 8 8 8 9 8 5 7 11 7 8 10
13 4 3 3 3 5 4 7 7 9 11 9 4 5 3 4 1 4 6 4 2 1 2 3 7 11 9 9 8 7 7 6 10 6 8 10 9 8 10 7 7 6 8 7 6 8 10 8 10
10 4 4 3 4 4 5 10 13 8 6 7 8 5 4 5 5 4 4 3 1 1 2 2 5 8 7 8 9 8 9 8 11 9 10 11 12 11 15 8 8 9 9 8 9 9 9 11 10
4 2 3 3 5 5 7 7 14 6 5 5 5 2 5 7 6 4 3 3 2 2 2 2 3 6 8 9 9 8 8 8 10 13 11 12 11 14 17 13 12 10 9 9 9 10 10 11 12
3 3 3 4 4 6 4 20 9 7 6 4 4 2 5 9 9 5 4 5 4 3 3 3 4 5 8 11 11 10 10 10 9 11 13 14 14 16 16 15 13 11 9 9 10 11 12 12 13
1 4 2 4 3 6 4 21 13 15 5 7 3 4 5 5 10 8 7 9 8 6 4 4 5 6 8 9 11 11 12 12 10 11 12 9 14 16 15 13 12 11 11 11 11 12 13 14 14
4 2 3 5 3 5 9 8 10 15 9 12 5 6 7 5 13 11 11 12 12 10 7 6 6 7 7 8 9 11 12 11 10 11 10 9 9 10 11 11 11 11 11 12 13 14 15 16 16
6 4 7 6 4 5 14 12 22 9 18 6 7 7 9 8 15 15 13 13 14 11 9 9 8 8 9 8 8 9 10 10 10 11 11 11 10 10 11 10 10 11 11 12 13 15 16 17 17
6 6 5 9 16 14 7 16 14 6 6 13 10 17 16 12 18 17 15 16 17 13 13 13 12 11 12 11 9 9 9 10 9 10 10 11 11 11 11 10 11 12 12 14 14 16 16 17 18
3 12 15 9 17 10 8 17 11 17 23 16 17 20 19 17 19 18 18 18 19 18 16 15 15 16 15 14 14 11 11 11 11 10 11 12 12 12 12 12 12 14 15 16 17 18 18 19 19
4 7 13 21 23 19 18 14 12 19 24 24 15 21 18 18 19 17 18 18 20 22 20 19 18 18 17 18 17 16 13 13 12 13 14 14 15 15 16 17 18 19 19 20 21 21 22 23 22
7 15 18 16 25 13 8 15 7 11 19 24 25 19 16 16 20 20 20 21 20 21 20 19 20 20 19 19 19 20 17 14 15 15 15 15 17 19 20 22 23 24 24 24 25 27 27 28 27
6 4 7 13 18 9 4 10 9 30 20 23 24 19 16 16 17 20 19 19 19 18 17 18 19 20 19 18 18 19 19 18 18 17 16 17 20 22 23 25 27 28 29 29 30 32 33 33 33
4 2 3 4 3 6 11 14 13 26 18 17 8 8 8 10 11 14 14 15 18 19 20 19 19 20 19 19 18 17 19 20 20 20 20 20 22 24 26 27 29 30 31 32 33 35 36 38 38
1 3 5 8 5 1 4 7 14 10 8 16 3 5 4 3 3 1 4 8 11 13 14 17 19 20 18 19 20 19 19 20 20 20 21 22 24 25 27 29 30 31 32 34 36 37 38 39 41
5 3 5 5 4 1 3 12 14 13 7 9 6 10 9 8 8 6 5 5 7 9 11 10 10 14 17 19 20 21 21 20 20 20 22 24 24 25 27 29 30 30 31 33 34 34 34 36 38
4 4 3 5 6 5 8 10 15 10 12 7 14 13 12 11 11 11 11 11 10 10 7 7 8 8 9 12 19 21 22 22 22 24 25 25 24 25 27 28 28 27 30 30 32 34 34 34 33
3 2 5 8 4 4 3 9 10 4 5 10 17 14 11 12 11 12 12 13 15 14 13 10 9 9 8 3 6 13 18 19 18 19 18 17 20 22 24 24 26 27 29 29 29 31 34 35 28
4 4 4 6 8 4 5 7 5 2 2 9 10 11 11 10 11 12 12 15 15 16 17 16 15 13 12 10 7 4 6 8 10 12 12 13 14 16 17 18 19 22 23 26 26 26 29 34 34
11 8 3 6 4 3 3 5 5 4 4 4 9 12 12 11 10 12 13 14 15 17 15 14 14 14 14 11 8 7 7 7 9 10 10 9 9 10 13 15 16 18 19 19 20 21 24 28 33
8 6 6 5 4 3 2 2 6 3 7 8 9 13 13 12 10 12 13 13 14 13 13 12 12 13 14 13 13 12 11 11 8 7 8 9 10 12 13 15 17 19 20 20 21 23 23 24 29
3 4 5 3 2 2 7 7 5 5 11 5 6 14 15 14 12 11 11 11 11 9 9 10 11 12 11 11 11 11 10 10 9 10 13 15 17 19 21 22 23 23 24 25 25 25 25 26 28
5 5 1 2 1 5 1 3 9 4 7 11 13 20 18 14 12 11 10 8 7 7 8 8 9 9 10 10 11 12 12 12 14 16 19 21 24 26 27 28 28 29 29 30 31 31 30 29 29
8 8 5 6 4 4 4 6 5 6 11 16 29 25 19 15 12 10 9 6 5 4 5 6 9 9 10 12 13 13 13 14 16 18 20 22 24 26 27 29 31 32 32 33 32 33 32 32 32
5 4 5 3 1 1 4 7 3 6 5 13 24 25 21 16 12 11 9 6 4 3 4 6 8 9 11 13 13 14 15 18 20 22 24 26 28 30 32 34 36 36 36 35 34 34 33 32 32
6 7 3 2 3 4 4 5 5 2 3 5 10 23 22 16 13 12 10 7 5 1 1 3 6 10 12 13 14 16 18 20 23 26 29 31 32 33 34 35 35 35 35 34 33 33 32 30 29
3 2 5 4 4 3 2 6 5 5 8 12 11 26 22 16 14 12 11 9 7 4 2 4 7 10 12 14 16 19 22 25 28 29 30 31 31 32 33 34 35 35 34 33 33 32 30 26 32
2 7 6 4 4 2 3 5 4 4 7 12 18 13 12 12 14 14 13 11 9 7 5 5 8 11 13 15 19 23 26 28 28 28 29 30 32 33 33 34 34 34 34 33 33 32 29 34 38
Wind_Direction
339 335 332 288 65 65 250 259 258 290 302 316 309 240 201 73 160 229 327 263 301 284 203 184 191 192 200 219 221 241 250 265 267 168 197 225 247 243 244 214 233 207 232 182 176 198 224 203 244
336 337 331 68 95 93 263 258 250 258 287 307 270 300 353 292 293 304 310 294 286 276 217 187 182 194 208 240 240 243 251 254 234 200 194 223 260 218 243 228 241 238 233 217 202 186 222 212 198
334 331 336 86 96 174 220 244 269 283 306 272 297 271 244 264 305 303 312 313 263 259 206 186 188 208 222 242 245 249 238 256 210 170 206 231 255 244 243 242 262 255 270 261 223 227 248 212 225
338 318 41 84 244 250 227 265 279 313 308 243 253 271 262 232 271 288 315 301 259 227 190 186 203 222 230 245 247 247 245 229 203 177 207 231 245 242 244 269 283 275 265 270 266 255 261 266 250
335 345 35 347 269 262 277 291 324 277 267 224 200 248 246 225 238 274 295 285 294 240 202 192 208 226 241 247 248 254 244 247 217 189 213 226 244 247 258 279 284 277 265 269 276 273 271 265 262
337 34 38 285 263 304 283 307 316 274 285 284 189 165 244 202 216 238 269 249 263 254 239 227 221 238 253 259 257 266 267 262 226 208 210 221 229 237 257 285 288 277 265 274 277 279 277 270 266
123 78 230 255 281 298 247 341 338 312 261 248 207 192 269 214 202 212 238 229 235 228 249 262 258 264 258 262 259 269 282 276 260 220 219 227 224 247 259 277 285 281 285 293 290 285 279 273 268
171 96 246 250 250 272 295 341 336 340 341 343 228 226 274 259 204 207 227 229 233 233 247 263 269 276 282 268 259 269 280 286 270 235 249 241 236 251 263 279 282 288 291 294 291 290 283 277 269
171 80 242 255 211 258 318 357 326 335 310 321 267 277 279 264 209 220 225 230 234 236 242 244 262 270 278 266 265 268 277 277 273 256 260 260 255 266 273 281 275 286 293 296 294 290 286 281 276
165 156 225 218 230 261 304 313 309 318 324 317 286 298 299 249 219 230 238 241 244 245 254 249 256 264 266 266 268 271 271 269 268 261 261 261 265 271 274 277 278 283 295 301 299 297 295 286 282
185 204 220 256 260 286 288 301 308 277 289 289 282 313 322 253 227 239 249 252 257 261 256 257 260 264 263 267 272 269 267 261 260 254 258 261 264 268 275 279 284 290 297 302 302 300 302 298 289
179 246 240 269 276 295 273 290 280 263 267 291 289 303 287 264 244 256 261 260 259 263 264 264 264 266 267 266 264 269 263 265 264 264 260 262 265 267 272 280 284 288 292 296 298 300 297 296 292
213 261 262 267 278 281 284 266 258 267 277 284 279 303 292 263 263 269 264 265 265 268 270 269 272 271 272 270 268 268 269 269 273 272 266 264 268 271 273 275 280 284 290 293 298 300 299 295 294
213 241 263 274 278 272 264 280 279 269 280 281 286 286 285 265 263 264 265 269 272 277 279 273 271 274 272 273 273 272 271 275 271 270 273 274 278 281 282 284 287 289 291 294 296 297 295 293 290
238 279 300 259 267 247 249 289 246 273 287 293 273 269 277 275 269 268 276 276 282 281 279 273 272 270 273 279 281 278 279 274 274 277 279 282 285 288 290 291 290 292 295 296 296 295 294 292 291
174 133 276 284 287 276 179 267 278 278 276 311 334 268 273 275 272 271 274 280 284 283 277 274 268 269 272 274 283 288 285 283 283 284 288 288 289 292 294 296 299 302 299 299 296 296 293 291 291
42 201 227 308 234 235 181 268 267 261 289 321 10 110 116 123 106 359 301 291 289 294 295 283 268 262 267 273 277 284 285 283 288 291 294 297 295 296 298 301 304 303 301 298 296 294 293 293 292
191 180 256 242 291 22 284 262 270 284 310 313 152 143 129 109 77 52 26 355 331 320 317 323 306 276 268 265 266 270 275 278 283 290 294 297 301 302 301 302 304 303 300 298 298 297 296 293 292
182 188 222 254 248 219 233 255 268 292 289 175 158 147 127 105 87 79 69 59 49 39 17 341 337 330 322 291 272 270 274 279 283 290 295 297 297 297 298 298 299 301 298 300 300 301 300 299 300
184 204 266 293 332 185 278 263 270 277 234 195 164 150 134 114 101 86 78 71 63 59 54 49 33 16 13 355 279 269 275 281 291 296 299 299 294 295 295 297 298 299 299 299 300 302 302 299 303
219 202 242 228 320 295 331 293 268 240 145 173 162 144 132 120 105 96 85 74 68 59 49 43 37 29 24 25 23 328 290 293 293 304 311 314 314 309 307 306 306 307 306 302 303 306 304 300 299
224 201 206 276 314 251 26 282 292 217 184 200 161 148 140 128 111 100 93 84 71 63 55 48 45 43 44 37 25 22 28 23 23 10 4 356 341 334 328 325 324 321 324 321 314 308 308 306 304
223 152 200 231 228 352 301 332 264 140 223 212 195 162 143 131 125 111 99 87 77 69 61 57 53 52 48 46 48 49 53 54 42 28 8 2 353 342 338 337 335 332 331 327 320 314 309 305 302
130 89 53 65 73 285 224 178 262 199 217 172 183 174 150 143 135 119 106 95 84 76 61 47 38 45 44 41 43 40 36 27 8 358 347 341 334 330 327 324 322 320 317 316 315 310 306 305 304
105 114 337 321 305 228 158 160 259 243 233 185 176 175 160 152 144 135 124 108 93 69 53 43 36 42 37 27 22 18 11 360 353 347 342 335 331 327 325 323 321 320 318 315 312 310 308 304 301
172 163 164 201 205 255 102 235 249 276 287 193 177 167 161 160 156 142 130 120 99 76 58 41 27 26 21 13 9 2 354 350 346 341 336 332 327 324 320 317 317 317 317 316 313 311 309 308 306
183 173 176 83 55 21 230 290 280 356 43 140 156 166 172 170 162 150 142 149 139 111 61 24 9 8 2 0 356 352 348 342 339 333 328 325 324 323 321 320 320 320 320 320 319 317 315 314 316
141 164 93 29 240 247 281 280 249 309 183 142 151 177 183 179 161 156 162 176 177 169 31 351 355 353 352 348 345 343 337 333 331 327 325 323 323 323 324 324 324 325 325 325 324 324 322 321 316
101 137 62 127 147 198 292 270 223 240 194 178 179 189 188 181 170 171 187 191 195 194 226 309 332 340 340 341 339 335 332 331 329 327 326 327 327 328 328 327 326 325 324 324 325 326 327 323 315
144 167 155 140 221 215 161 276 330 293 163 175 192 199 196 190 183 195 195 189 193 213 243 295 328 333 335 337 339 337 332 327 325 327 330 331 330 330 329 330 329 329 328 326 326 325 326 318 321
Height
1523 1520 1517 1518 1527 1529 1532 1523 1512 1509 1505 1501 1499 1499 1496 1496 1497 1508 1493 1492 1491 1491 1491 1492 1493 1496 1498 1499 1500 1501 1501 1502 1502 1504 1504 1505 1505 1505 1505 1504 1503 1503 1502 1501 1502 1503 1502 1502 1502
1523 1520 1518 1518 1532 1540 1535 1516 1512 1509 1504 1501 1500 1498 1496 1495 1495 1494 1493 1492 1491 1491 1491 1492 1493 1495 1497 1498 1499 1500 1500 1500 1501 1502 1504 1505 1505 1505 1505 1504 1503 1502 1500 1500 1500 1501 1500 1500 1501
1523 1520 1520 1524 1537 1538 1532 1513 1509 1504 1503 1501 1500 1499 1497 1495 1494 1494 1494 1492 1491 1491 1492 1492 1494 1496 1497 1497 1498 1498 1499 1499 1500 1501 1504 1504 1505 1505 1504 1503 1502 1501 1499 1499 1499 1499 1499 1499 1499
1523 1523 1523 1529 1531 1522 1518 1510 1505 1504 1500 1499 1499 1499 1496 1494 1494 1494 1494 1492 1492 1492 1492 1492 1494 1495 1496 1497 1497 1497 1498 1499 1500 1501 1503 1504 1505 1504 1503 1502 1501 1500 1499 1498 1498 1499 1498 1498 1498
1524 1524 1533 1534 1528 1518 1513 1509 1507 1503 1502 1497 1498 1496 1495 1493 1493 1494 1494 1493 1492 1492 1492 1492 1493 1495 1496 1496 1496 1496 1497 1498 1499 1501 1502 1504 1504 1504 1502 1502 1500 1499 1498 1498 1498 1497 1497 1497 1497
1525 1528 1539 1542 1529 1520 1512 1508 1504 1502 1498 1497 1496 1497 1493 1491 1492 1493 1493 1494 1493 1492 1492 1492 1492 1494 1495 1495 1496 1496 1496 1497 1498 1499 1500 1502 1503 1502 1501 1501 1499 1498 1497 1497 1497 1496 1496 1496 1496
1527 1532 1537 1535 1531 1521 1510 1507 1503 1502 1498 1495 1493 1496 1493 1490 1491 1492 1492 1493 1492 1492 1491 1491 1492 1494 1495 1495 1495 1495 1496 1496 1496 1497 1499 1500 1501 1500 1500 1500 1499 1498 1497 1496 1495 1495 1494 1494 1494
1525 1529 1534 1533 1531 1522 1508 1506 1503 1500 1497 1496 1494 1493 1492 1490 1490 1491 1491 1492 1492 1491 1491 1491 1492 1493 1493 1494 1494 1495 1495 1495 1495 1496 1496 1497 1498 1498 1499 1498 1497 1496 1496 1495 1494 1494 1494 1493 1493
1525 1536 1539 1530 1525 1516 1508 1508 1502 1501 1499 1496 1493 1492 1492 1491 1490 1491 1490 1490 1490 1489 1489 1490 1491 1492 1493 1493 1493 1494 1494 1495 1495 1495 1496 1496 1496 1497 1497 1496 1496 1495 1494 1494 1493 1493 1492 1492 1491
1524 1533 1527 1517 1514 1513 1509 1508 1506 1503 1498 1495 1493 1493 1491 1490 1490 1490 1488 1489 1489 1488 1489 1489 1491 1492 1493 1493 1493 1493 1494 1494 1494 1494 1495 1495 1495 1496 1496 1495 1494 1494 1493 1492 1491 1491 1490 1489 1488
1520 1523 1516 1513 1512 1511 1509 1506 1505 1502 1499 1496 1494 1491 1489 1489 1489 1488 1488 1489 1489 1490 1489 1489 1490 1491 1492 1492 1493 1492 1493 1494 1494 1494 1494 1494 1494 1494 1494 1493 1493 1492 1492 1491 1490 1490 1488 1487 1486
1519 1514 1513 1510 1510 1510 1507 1504 1501 1499 1494 1494 1492 1490 1487 1486 1486 1486 1486 1487 1488 1488 1488 1489 1489 1490 1490 1490 1491 1492 1492 1493 1493 1493 1493 1492 1493 1492 1492 1491 1492 1491 1491 1490 1489 1488 1487 1485 1484
1515 1512 1510 1508 1507 1506 1504 1500 1499 1493 1492 1491 1489 1487 1485 1484 1484 1484 1485 1486 1487 1487 1488 1488 1489 1488 1489 1489 1489 1490 1490 1491 1492 1492 1492 1492 1491 1490 1491 1490 1490 1489 1489 1488 1487 1485 1484 1482 1481
1509 1509 1508 1506 1502 1503 1502 1496 1495 1487 1488 1487 1486 1485 1483 1482 1482 1484 1484 1485 1486 1486 1486 1487 1486 1486 1487 1487 1487 1488 1489 1490 1490 1491 1491 1490 1489 1489 1489 1488 1488 1486 1486 1485 1484 1482 1481 1479 1477
1508 1511 1507 1502 1499 1498 1498 1495 1489 1483 1485 1482 1479 1479 1480 1480 1481 1482 1482 1483 1483 1483 1483 1483 1483 1484 1484 1485 1485 1486 1487 1488 1488 1488 1488 1488 1488 1487 1486 1485 1484 1483 1482 1481 1479 1477 1476 1473 1472
1509 1511 1515 1500 1497 1494 1496 1495 1482 1482 1484 1480 1474 1475 1478 1479 1479 1480 1480 1480 1479 1479 1478 1479 1480 1480 1481 1482 1483 1484 1485 1485 1486 1485 1485 1485 1485 1485 1484 1482 1481 1479 1478 1476 1474 1472 1469 1467 1464
1509 1519 1516 1508 1494 1494 1493 1494 1476 1480 1481 1477 1476 1476 1478 1479 1479 1479 1478 1477 1477 1475 1474 1474 1475 1476 1478 1479 1480 1480 1482 1482 1482 1483 1482 1482 1482 1482 1480 1478 1476 1474 1472 1470 1468 1465 1463 1460 1456
1512 1514 1513 1512 1497 1496 1495 1491 1478 1478 1479 1477 1476 1477 1479 1479 1479 1479 1478 1477 1475 1474 1473 1473 1472 1473 1474 1475 1476 1477 1479 1479 1480 1480 1480 1479 1479 1478 1476 1474 1472 1469 1467 1464 1461 1459 1457 1453 1450
1504 1507 1508 1504 1496 1498 1495 1490 1480 1477 1477 1477 1476 1477 1479 1480 1482 1480 1478 1476 1475 1474 1474 1472 1471 1471 1472 1472 1473 1474 1475 1477 1477 1478 1477 1476 1475 1474 1472 1469 1467 1464 1461 1458 1456 1453 1450 1447 1445
1503 1506 1509 1501 1493 1495 1489 1488 1479 1476 1476 1476 1474 1477 1480 1480 1481 1480 1479 1478 1477 1477 1476 1474 1473 1471 1471 1470 1471 1471 1472 1474 1474 1474 1473 1472 1471 1469 1467 1464 1461 1459 1455 1453 1451 1448 1444 1441 1441
1503 1507 1508 1507 1498 1491 1491 1490 1479 1475 1475 1477 1478 1478 1480 1481 1482 1481 1481 1479 1479 1478 1477 1476 1474 1473 1471 1471 1470 1470 1471 1471 1471 1471 1470 1469 1467 1465 1463 1461 1457 1455 1451 1448 1445 1442 1439 1436 1435
1504 1499 1501 1504 1508 1512 1496 1510 1485 1477 1478 1478 1477 1478 1480 1481 1483 1482 1481 1481 1480 1480 1480 1479 1477 1475 1474 1472 1471 1470 1471 1471 1471 1471 1469 1468 1466 1464 1462 1459 1455 1452 1448 1444 1441 1438 1434 1431 1426
1498 1494 1500 1503 1506 1506 1502 1510 1484 1478 1481 1477 1477 1478 1479 1480 1483 1482 1482 1482 1482 1483 1482 1481 1480 1478 1476 1475 1474 1473 1472 1472 1472 1471 1470 1468 1466 1463 1459 1457 1453 1450 1446 1442 1438 1434 1431 1428 1424
1489 1497 1503 1508 1512 1518 1503 1503 1485 1482 1468 1474 1475 1477 1477 1479 1483 1483 1483 1483 1483 1483 1483 1483 1481 1479 1479 1477 1476 1475 1474 1473 1472 1470 1468 1466 1463 1460 1457 1454 1450 1446 1442 1438 1434 1430 1427 1423 1419
1493 1502 1521 1521 1521 1516 1498 1503 1472 1464 1463 1462 1468 1473 1476 1479 1482 1483 1483 1484 1484 1483 1484 1483 1482 1481 1480 1479 1478 1476 1474 1473 1471 1469 1466 1463 1459 1456 1452 1449 1445 1441 1437 1433 1429 1425 1421 1416 1411
1493 1492 1511 1516 1520 1509 1500 1498 1470 1462 1459 1458 1464 1470 1476 1479 1482 1483 1483 1484 1484 1484 1484 1484 1484 1483 1481 1480 1478 1477 1475 1473 1471 1468 1464 1461 1457 1453 1449 1444 1440 1436 1432 1427 1423 1418 1414 1410 1405
1487 1493 1490 1499 1505 1511 1495 1479 1464 1463 1460 1459 1464 1470 1474 1478 1481 1483 1483 1484 1484 1484 1484 1485 1484 1483 1481 1480 1478 1476 1474 1471 1468 1465 1462 1458 1453 1448 1444 1439 1435 1430 1426 1421 1416 1411 1406 1402 1398
1474 1479 1496 1506 1507 1506 1497 1489 1476 1465 1466 1464 1467 1469 1473 1477 1480 1482 1483 1483 1483 1484 1485 1485 1484 1483 1481 1479 1477 1475 1472 1470 1467 1463 1458 1453 1449 1444 1439 1434 1429 1424 1420 1415 1410 1405 1401 1396 1392
1480 1485 1490 1494 1503 1504 1506 1488 1465 1461 1462 1463 1465 1467 1472 1476 1479 1480 1481 1482 1483 1484 1484 1484 1483 1482 1480 1478 1476 1474 1471 1467 1463 1459 1454 1449 1445 1440 1435 1430 1425 1420 1414 1409 1404 1400 1395 1391 1385
1471 1477 1482 1496 1497 1505 1506 1488 1464 1459 1459 1464 1466 1471 1475 1477 1477 1478 1480 1482 1482 1483 1483 1483 1482 1480 1479 1477 1474 1471 1468 1464 1460 1456 1451 1446 1442 1438 1432 1427 1422 1416 1411 1405 1400 1394 1390 1385 1379